| time (UTC) | temp F | wind direction | speed knots | gust knots | rain 1hr in | rain 24hr in | rain mn in | humidity % | barometer mb |
| 20260508163054 | 66 | 124 | 6.1 | 10.4 | 0.00 | 0.00 | 0.00 | 71 | 1011.1 |
| 20260508161547 | 66 | 122 | 7.0 | 13.0 | 0.00 | 0.00 | 0.00 | 70 | 1010.9 |
| 20260508160050 | 66 | 119 | 4.3 | 11.3 | 0.00 | 0.00 | 0.00 | 70 | 1011.1 |
| 20260508154550 | 65 | 119 | 7.0 | 13.9 | 0.00 | 0.00 | 0.00 | 70 | 1011.2 |
| 20260508153047 | 66 | 118 | 6.1 | 11.3 | 0.00 | 0.00 | 0.00 | 70 | 1011.3 |
| 20260508151545 | 66 | 118 | 4.3 | 15.6 | 0.00 | 0.00 | 0.00 | 70 | 1011.6 |
| 20260508150043 | 66 | 121 | 4.3 | 13.0 | 0.00 | 0.00 | 0.00 | 70 | 1011.6 |
| 20260508144548 | 66 | 121 | 7.0 | 12.2 | 0.00 | 0.00 | 0.00 | 70 | 1011.9 |
| 20260508143050 | 65 | 120 | 6.1 | 13.0 | 0.00 | 0.00 | 0.00 | 71 | 1012.2 |
| 20260508141550 | 65 | 120 | 7.0 | 13.9 | 0.00 | 0.00 | 0.00 | 71 | 1012.3 |
| 20260508140055 | 65 | 122 | 8.7 | 13.0 | 0.00 | 0.00 | 0.00 | 71 | 1012.4 |
| 20260508134550 | 65 | 123 | 7.0 | 13.9 | 0.00 | 0.00 | 0.00 | 71 | 1012.3 |
| 20260508133042 | 65 | 123 | 5.2 | 12.2 | 0.00 | 0.00 | 0.00 | 71 | 1012.6 |
| 20260508131555 | 65 | 122 | 7.0 | 12.2 | 0.00 | 0.00 | 0.00 | 71 | 1012.7 |
| 20260508130103 | 65 | 127 | 7.0 | 13.0 | 0.00 | 0.00 | 0.00 | 71 | 1012.8 |
| 20260508124552 | 65 | 128 | 7.8 | 13.0 | 0.00 | 0.00 | 0.00 | 71 | 1013.0 |
| 20260508123053 | 65 | 125 | 5.2 | 12.2 | 0.00 | 0.00 | 0.00 | 71 | 1012.9 |
| 20260508121611 | 65 | 124 | 5.2 | 11.3 | 0.00 | 0.00 | 0.00 | 71 | 1013.1 |
| 20260508120054 | 64 | 158 | 7.8 | 12.2 | 0.00 | 0.00 | 0.00 | 71 | 1013.4 |
| 20260508114552 | 64 | 198 | 5.2 | 9.6 | 0.00 | 0.00 | 0.00 | 71 | 1013.4 |
| 20260508113104 | 64 | 198 | 4.3 | 9.6 | 0.00 | 0.00 | 0.00 | 71 | 1013.5 |
| 20260508111549 | 64 | 198 | 6.1 | 11.3 | 0.00 | 0.00 | 0.00 | 71 | 1013.7 |
| 20260508110047 | 64 | 198 | 4.3 | 10.4 | 0.00 | 0.00 | 0.00 | 71 | 1013.6 |
| 20260508104547 | 63 | 198 | 5.2 | 11.3 | 0.00 | 0.00 | 0.00 | 71 | 1013.6 |
| 20260508103050 | 63 | 198 | 5.2 | 9.6 | 0.00 | 0.00 | 0.00 | 71 | 1013.7 |
| 20260508101549 | 63 | 198 | 3.5 | 9.6 | 0.00 | 0.00 | 0.00 | 71 | 1013.5 |
| 20260508100044 | 63 | 198 | 3.5 | 7.0 | 0.00 | 0.00 | 0.00 | 71 | 1013.5 |
| 20260508094548 | 63 | 198 | 3.5 | 9.6 | 0.00 | 0.00 | 0.00 | 71 | 1013.4 |
| 20260508093055 | 63 | 198 | 2.6 | 7.0 | 0.00 | 0.00 | 0.00 | 71 | 1013.4 |
| 20260508091555 | 62 | 198 | 4.3 | 7.0 | 0.00 | 0.00 | 0.00 | 71 | 1013.3 |
| 20260508090059 | 62 | 198 | 3.5 | 7.8 | 0.00 | 0.00 | 0.00 | 71 | 1013.5 |
| 20260508084545 | 62 | 198 | 1.7 | 6.1 | 0.00 | 0.00 | 0.00 | 71 | 1013.6 |
| 20260508083045 | 62 | 198 | 0.9 | 6.1 | 0.00 | 0.00 | 0.00 | 71 | 1013.9 |
| 20260508081549 | 62 | 198 | 2.6 | 5.2 | 0.00 | 0.00 | 0.00 | 72 | 1013.9 |
| 20260508080051 | 62 | 198 | 0.9 | 4.3 | 0.00 | 0.00 | 0.00 | 72 | 1013.7 |
| 20260508074548 | 61 | 0 | 2.6 | 4.3 | 0.00 | 0.00 | 0.00 | 72 | 1013.6 |
| 20260508073048 | 61 | 198 | 0.9 | 2.6 | 0.00 | 0.00 | 0.00 | 73 | 1013.7 |
| 20260508071555 | 59 | 0 | 0.0 | 0.9 | 0.00 | 0.00 | 0.00 | 73 | 1013.4 |
| 20260508070056 | 58 | 0 | 0.0 | 0.0 | 0.00 | 0.00 | 0.00 | 72 | 1013.3 |
| 20260508064550 | 55 | 0 | 0.0 | 0.0 | 0.00 | 0.00 | 0.00 | 72 | 1013.2 |
| 20260508063043 | 54 | 0 | 0.0 | 0.0 | 0.00 | 0.00 | 0.00 | 71 | 1012.9 |
| 20260508061547 | 53 | 0 | 0.0 | 0.0 | 0.00 | 0.00 | 0.00 | 71 | 1012.8 |
| 20260508060052 | 52 | 0 | 0.0 | 0.0 | 0.00 | 0.00 | 0.00 | 70 | 1012.8 |
| 20260508054551 | 51 | 0 | 0.0 | 0.0 | 0.00 | 0.00 | 0.00 | 70 | 1012.5 |
| 20260508053052 | 52 | 0 | 0.0 | 0.0 | 0.00 | 0.00 | 0.00 | 69 | 1012.3 |
| 20260508051547 | 52 | 0 | 0.0 | 0.9 | 0.00 | 0.00 | 0.00 | 69 | 1012.4 |
| 20260508050047 | 52 | 198 | 0.9 | 1.7 | 0.00 | 0.00 | 0.00 | 69 | 1012.4 |
| 20260508044551 | 52 | 198 | 0.0 | 0.9 | 0.00 | 0.00 | 0.00 | 68 | 1012.4 |
| 20260508043050 | 53 | 198 | 3.5 | 4.3 | 0.00 | 0.00 | 0.00 | 68 | 1011.9 |
| 20260508041548 | 53 | 198 | 0.9 | 1.7 | 0.00 | 0.00 | 0.00 | 68 | 1012.5 |
| 20260508040048 | 54 | 198 | 0.9 | 1.7 | 0.00 | 0.00 | 0.00 | 67 | 1012.7 |
| 20260508034545 | 55 | 198 | 0.9 | 1.7 | 0.00 | 0.00 | 0.00 | 67 | 1012.5 |
| 20260508033109 | 56 | 198 | 0.9 | 0.9 | 0.00 | 0.00 | 0.00 | 67 | 1012.4 |
| 20260508031545 | 57 | 198 | 0.0 | 0.9 | 0.00 | 0.00 | 0.00 | 67 | 1012.3 |
| 20260508030101 | 57 | 0 | 0.0 | 1.7 | 0.00 | 0.00 | 0.00 | 67 | 1012.1 |
| 20260508024607 | 56 | 198 | 0.0 | 0.9 | 0.00 | 0.00 | 0.00 | 67 | 1012.0 |
| 20260508023045 | 56 | 0 | 0.0 | 1.7 | 0.00 | 0.00 | 0.00 | 67 | 1012.0 |
| 20260508021544 | 57 | 198 | 2.6 | 4.3 | 0.00 | 0.00 | 0.00 | 66 | 1011.5 |
| 20260508020103 | 57 | 198 | 0.9 | 2.6 | 0.00 | 0.00 | 0.00 | 66 | 1012.2 |
| 20260508014555 | 57 | 198 | 1.7 | 3.5 | 0.00 | 0.00 | 0.00 | 66 | 1012.7 |
| 20260508013047 | 57 | 198 | 2.6 | 5.2 | 0.00 | 0.00 | 0.00 | 66 | 1013.0 |
| 20260508011547 | 58 | 198 | 2.6 | 4.3 | 0.00 | 0.00 | 0.00 | 65 | 1012.9 |
| 20260508010044 | 58 | 198 | 0.0 | 0.9 | 0.00 | 0.00 | 0.00 | 65 | 1012.5 |
| 20260508004544 | 58 | 0 | 0.0 | 3.5 | 0.00 | 0.00 | 0.00 | 65 | 1012.7 |
| 20260508003050 | 58 | 0 | 0.0 | 1.7 | 0.00 | 0.00 | 0.00 | 65 | 1013.2 |
| 20260508001551 | 58 | 198 | 1.7 | 4.3 | 0.00 | 0.00 | 0.00 | 65 | 1012.9 |
| 20260508000043 | 58 | 198 | 0.9 | 1.7 | 0.00 | 0.00 | 0.00 | 64 | 1013.2 |
| 20260507234548 | 59 | 198 | 1.7 | 3.5 | 0.00 | 0.00 | 0.00 | 64 | 1013.1 |
| 20260507233044 | 59 | 198 | 0.9 | 4.3 | 0.00 | 0.00 | 0.00 | 64 | 1013.1 |
| 20260507231546 | 59 | 198 | 1.7 | 2.6 | 0.00 | 0.00 | 0.00 | 64 | 1012.8 |
| 20260507230051 | 59 | 198 | 0.9 | 2.6 | 0.00 | 0.00 | 0.00 | 64 | 1012.8 |
| 20260507224545 | 60 | 198 | 0.9 | 2.6 | 0.00 | 0.00 | 0.00 | 64 | 1013.3 |
| 20260507223043 | 60 | 198 | 3.5 | 5.2 | 0.00 | 0.00 | 0.00 | 64 | 1013.7 |
| 20260507221548 | 61 | 198 | 1.7 | 2.6 | 0.00 | 0.00 | 0.00 | 64 | 1013.3 |
| 20260507220051 | 61 | 198 | 0.9 | 1.7 | 0.00 | 0.00 | 0.00 | 64 | 1013.5 |
| 20260507214547 | 61 | 198 | 0.0 | 2.6 | 0.00 | 0.00 | 0.00 | 64 | 1013.4 |
| 20260507213053 | 61 | 198 | 0.0 | 2.6 | 0.00 | 0.00 | 0.00 | 64 | 1013.4 |
| 20260507211554 | 61 | 198 | 0.9 | 1.7 | 0.00 | 0.00 | 0.00 | 64 | 1013.2 |
| 20260507210050 | 62 | 198 | 1.7 | 3.5 | 0.00 | 0.00 | 0.00 | 64 | 1013.2 |
| 20260507204548 | 62 | 198 | 0.9 | 3.5 | 0.00 | 0.00 | 0.00 | 64 | 1013.0 |
| 20260507203044 | 63 | 198 | 1.7 | 6.1 | 0.00 | 0.00 | 0.00 | 64 | 1012.9 |
| 20260507201552 | 63 | 198 | 2.6 | 5.2 | 0.00 | 0.00 | 0.00 | 64 | 1012.9 |
| 20260507200046 | 63 | 198 | 2.6 | 6.1 | 0.00 | 0.00 | 0.00 | 64 | 1012.7 |
| 20260507194548 | 63 | 198 | 3.5 | 7.8 | 0.00 | 0.00 | 0.00 | 63 | 1012.5 |
| 20260507193049 | 63 | 198 | 4.3 | 7.8 | 0.00 | 0.00 | 0.00 | 63 | 1012.3 |
| 20260507191546 | 63 | 198 | 5.2 | 10.4 | 0.00 | 0.00 | 0.00 | 63 | 1012.1 |
| 20260507190044 | 64 | 198 | 5.2 | 11.3 | 0.00 | 0.00 | 0.00 | 62 | 1012.0 |
| 20260507184549 | 64 | 199 | 3.5 | 8.7 | 0.00 | 0.00 | 0.00 | 62 | 1011.7 |
| 20260507183055 | 65 | 199 | 4.3 | 10.4 | 0.00 | 0.00 | 0.00 | 62 | 1011.5 |
| 20260507181546 | 66 | 200 | 3.5 | 7.8 | 0.00 | 0.00 | 0.00 | 62 | 1011.2 |
| 20260507180055 | 67 | 200 | 3.5 | 7.8 | 0.00 | 0.00 | 0.00 | 62 | 1011.3 |
| 20260507174546 | 68 | 200 | 4.3 | 8.7 | 0.00 | 0.00 | 0.00 | 63 | 1011.2 |
| 20260507173056 | 68 | 200 | 3.5 | 7.8 | 0.00 | 0.00 | 0.00 | 63 | 1011.3 |
| 20260507171552 | 68 | 200 | 5.2 | 13.0 | 0.00 | 0.00 | 0.00 | 63 | 1011.4 |
| 20260507170055 | 68 | 200 | 7.0 | 11.3 | 0.00 | 0.00 | 0.00 | 63 | 1011.4 |
| 20260507164544 | 68 | 200 | 8.7 | 13.9 | 0.00 | 0.00 | 0.00 | 63 | 1011.5 |